[[{"header":{"parameterUnit":"m.s-1","parameterCategory":1,"la1":30.2991,"la2":30.254,"lo1":-89.0895,"lo2":-89.0444,"dy":0.0017,"dx":0.0017,"nx":28,"ny":28,"refTime":"2025-03-15T21:00:00:Z","depth":0,"parameterNumber":2,"parameterNumberName":"U-component_of_WINDS"},"data":[0,0,0,0,0,0,0,0,0,0,0,0,0,0,0,0,0,0,0,0,0,0,0,0,0,0,0,0,0,0,0,0,0,0,0,0,0,0,0,0,0,0,0,0,0,0,0,0,0,0,0,0,0,0,0,0,0,0,6.8013,6.8014,0,6.8094,6.8095,6.8096,6.8059,6.8057,6.8055,6.8053,6.8136,6.814,6.8144,0,0,0,0,0,0,0,0,0,0,0,0,0,6.7826,6.783,6.8013,6.8014,6.8015,6.8094,6.8095,6.8096,6.8059,6.8057,6.8054,6.8052,6.8135,6.814,6.8145,0,0,0,0,0,0,0,0,0,0,0,0,0,6.7908,6.7831,6.8012,6.8006,6.8006,6.8094,6.8095,6.8097,6.806,6.8057,6.8053,6.8051,6.8133,6.8139,6.8145,6.8245,0,0,6.8164,6.8167,0,0,0,0,0,0,0,0,6.7903,6.7914,6.8006,6.8006,6.8007,6.8063,6.806,6.8146,6.806,6.8039,6.8053,6.8049,6.8114,6.8122,6.8144,6.8249,6.8252,6.8165,6.8169,6.8171,6.8173,0,0,0,0,0,0,0,6.7897,6.7911,6.8045,6.8007,6.8008,6.7999,6.8007,6.8076,6.8093,6.8041,6.8038,6.8048,6.8114,6.8138,6.8146,6.8254,6.8165,6.817,6.8174,6.8176,6.8448,6.8451,0,0,0,0,0,0,6.7892,6.7906,6.8042,6.8047,6.7946,6.8005,6.8014,6.8048,6.8092,6.8096,6.8051,6.8046,6.8129,6.8138,6.8148,6.827,6.8171,6.8177,6.8181,6.8444,6.8448,6.8452,0,0,0,0,0,0,6.7888,6.7904,6.8039,6.7976,6.7993,6.8011,6.805,6.8051,6.8075,6.81,6.8103,6.8072,6.8127,6.814,6.8222,6.8272,6.818,6.8185,6.844,6.8445,6.845,6.8513,0,0,0,0,0,0,6.7883,6.7903,6.794,6.7977,6.7996,6.8111,6.8053,6.8055,6.8086,6.8081,6.8121,6.8124,6.8126,6.8213,6.8228,6.8279,6.819,6.8436,6.8442,6.8449,6.8506,6.8519,6.8531,0,0,0,0,0,6.7876,6.7954,6.7942,6.7959,6.8043,6.8114,6.8124,6.8124,6.809,6.8129,6.8145,6.8123,6.8264,6.8222,6.8238,6.8292,6.8432,6.8441,6.8448,6.8501,6.8517,6.853,0,0,0,0,0,0,6.7921,6.7959,6.7946,6.8038,6.8073,6.8107,6.8155,6.8141,6.8186,6.8179,6.8177,6.8187,6.8272,6.829,6.8242,6.8393,6.8343,6.8355,6.8378,6.8393,6.8405,6.8399,6.8195,0,0,0,0,0,6.7942,6.7996,6.8026,6.8104,6.8122,6.8136,6.8166,6.8164,6.82,6.8214,6.8236,6.8273,6.8325,6.836,6.841,6.8509,6.8518,6.8554,6.8566,6.8576,6.8587,6.8643,6.866,6.8478,6.8478,6.8478,0,0,6.7986,6.8013,6.8046,6.8114,6.814,6.8197,6.8148,6.821,6.8252,6.8223,6.8303,6.8321,6.8361,6.8453,6.8495,6.8471,6.8639,6.8586,6.8594,6.8599,6.8653,6.867,6.8686,6.8483,6.8482,6.8482,0,0,6.8094,6.8119,6.8188,6.8217,6.8258,6.8267,6.8284,6.8321,6.8332,6.8412,6.8393,6.8444,6.8534,6.8564,6.8592,6.8715,6.8698,6.8732,6.8796,6.8851,6.8865,6.8878,6.8924,6.894,6.8742,6.8742,6.8742,0,6.8142,6.8227,6.8225,6.829,6.8321,6.8299,6.837,6.8397,6.8453,6.8476,6.8448,6.8563,6.8589,6.8689,6.8719,6.8741,6.8762,6.8727,6.8863,6.8876,6.8888,6.8932,6.8949,6.8746,6.8745,6.8745,6.8744,0,6.8285,6.8344,6.8396,6.8451,6.8488,6.8555,6.8566,6.8603,6.8598,6.8611,6.8694,6.8724,6.8781,6.8805,6.8799,6.8905,6.8889,6.8863,6.8813,6.8909,6.8951,6.8967,6.8751,6.875,6.8749,6.8748,0,0,6.8423,6.8479,6.8498,6.8525,6.857,6.8616,6.8684,6.874,6.8773,6.8813,6.8871,6.8949,6.8926,6.8957,6.8956,6.9004,6.9103,6.8972,6.8973,6.8997,6.9224,6.9245,6.9264,6.9092,6.9095,6.9097,6.9221,0,6.8536,6.8654,6.8656,6.8765,6.8821,6.8802,6.8861,6.8896,6.891,6.896,6.8976,6.9033,6.8996,6.9015,6.9062,6.9081,6.9149,6.9072,6.9146,6.9149,6.9138,6.9285,6.9307,6.9422,6.9237,6.924,6.9242,0,6.8683,6.8729,6.8844,6.8884,6.8908,6.8961,6.9014,6.9062,6.9102,6.9109,6.9146,6.9138,6.9208,6.9157,6.9255,6.9203,6.9234,6.9248,6.9252,6.926,6.9202,6.9298,6.9459,6.9477,6.9267,6.9265,6.9263,0,6.8775,6.8865,6.8947,6.8969,6.9018,6.9056,6.9078,6.9115,6.915,6.9197,6.922,6.9274,6.9304,6.9347,6.9354,6.9316,6.9454,6.9402,6.9463,6.9463,6.9493,6.9491,6.9662,6.9511,6.9511,6.9511,6.951,0,6.8902,6.8973,6.8989,6.9039,6.9119,6.9122,6.9201,6.922,6.9254,6.9308,6.9295,6.9346,6.9353,6.9406,6.9413,6.9495,6.9508,6.9516,6.9518,6.9518,6.9518,6.9539,6.9532,6.9515,6.9514,6.9513,6.9512,0,6.9018,6.9031,6.9118,6.9158,6.917,6.9227,6.9262,6.931,6.9324,6.9393,6.9409,6.9431,6.9493,6.9505,6.9579,6.9583,6.9681,6.9673,6.9668,6.9667,6.9728,6.9723,6.992,6.9947,6.9777,6.9778,6.978,0,6.9098,6.9153,6.9199,6.9235,6.9259,6.9316,6.9352,6.9358,6.9396,6.9448,6.9491,6.9552,6.9601,6.9703,6.9726,6.9783,6.9777,6.9842,6.9785,6.9786,6.978,6.9778,6.9784,6.9853,6.9855,6.9857,6.9858,0,6.9241,6.9245,6.9297,6.9353,6.9397,6.944,6.9482,6.9512,6.9523,6.9567,6.9631,6.967,6.9746,6.9808,6.9866,6.9889,6.9877,6.9876,6.9893,6.9895,6.989,6.9896,6.9699,6.9871,6.987,6.9869,6.9868,6.9868,6.9343,6.9392,6.9433,6.9492,6.9524,6.9564,6.9613,6.9633,6.9687,6.975,6.975,6.9821,6.9862,6.9938,6.9966,7.0022,7.0002,7.0026,7.0033,7.0039,7.0046,6.9881,7.0033,7.0032,7.0032,7.0032,7.0031,0,6.9487,6.9513,6.9567,6.9627,6.9674,6.9658,6.9704,6.9745,6.9808,6.9847,6.9897,6.9972,7.0033,7.0061,7.0122,7.0162,7.0158,7.0177,7.0175,7.0181,7.006,7.004,7.018,7.018,7.018,7.018,7.018,7.018,6.9567,6.965,6.966,6.9759,6.9784,6.9854,6.9882,6.992,6.9952,7.0037,7.0087,7.0105,7.0141,7.0204,7.026,7.0267,7.0291,7.0314,7.0318,7.0204,7.0189,7.0175,7.0156,7.0319,7.0319,7.0435,7.0436,7.0437]},{"header":{"parameterUnit":"m.s-1","parameterCategory":1,"la1":30.2991,"la2":30.254,"lo1":-89.0895,"lo2":-89.0444,"dy":0.0017,"dx":0.0017,"nx":28,"ny":28,"refTime":"2025-03-15T21:00:00:Z","depth":0,"parameterNumber":3,"parameterNumberName":"V-component_of_WINDS"},"data":[0,0,0,0,0,0,0,0,0,0,0,0,0,0,0,0,0,0,0,0,0,0,0,0,0,0,0,0,0,0,0,0,0,0,0,0,0,0,0,0,0,0,0,0,0,0,0,0,0,0,0,0,0,0,0,0,0,0,-2.6773,-2.6772,0,-2.6678,-2.6677,-2.6676,-2.6681,-2.6683,-2.6684,-2.6685,-2.6579,-2.6575,-2.6571,0,0,0,0,0,0,0,0,0,0,0,0,0,-2.6951,-2.6948,-2.6773,-2.6772,-2.677,-2.6678,-2.6677,-2.6676,-2.6681,-2.6683,-2.6684,-2.6686,-2.658,-2.6576,-2.6571,0,0,0,0,0,0,0,0,0,0,0,0,0,-2.6866,-2.6946,-2.6773,-2.6762,-2.676,-2.6678,-2.6677,-2.6675,-2.6681,-2.6683,-2.6685,-2.6687,-2.6582,-2.6576,-2.657,-2.649,0,0,-2.6551,-2.6548,0,0,0,0,0,0,0,0,-2.6871,-2.686,-2.6765,-2.6763,-2.6761,-2.6694,-2.6701,-2.6613,-2.668,-2.671,-2.6685,-2.6688,-2.6615,-2.6606,-2.6583,-2.6485,-2.648,-2.655,-2.6547,-2.6544,-2.6542,0,0,0,0,0,0,0,-2.6877,-2.6864,-2.6735,-2.6764,-2.6761,-2.676,-2.675,-2.6684,-2.6652,-2.6708,-2.6708,-2.6697,-2.6614,-2.6589,-2.6581,-2.6479,-2.6551,-2.6545,-2.6541,-2.6539,-2.6309,-2.6307,0,0,0,0,0,0,-2.6886,-2.6869,-2.6738,-2.6732,-2.6822,-2.6755,-2.6744,-2.6713,-2.6653,-2.6646,-2.6696,-2.6698,-2.6599,-2.6588,-2.6577,-2.6479,-2.6544,-2.6538,-2.6535,-2.6311,-2.6308,-2.6306,0,0,0,0,0,0,-2.689,-2.6875,-2.6742,-2.68,-2.6784,-2.675,-2.6715,-2.671,-2.6685,-2.6644,-2.6637,-2.6677,-2.66,-2.6586,-2.6512,-2.6475,-2.6535,-2.653,-2.6314,-2.631,-2.6307,-2.6282,0,0,0,0,0,0,-2.6895,-2.6876,-2.6847,-2.68,-2.678,-2.668,-2.6712,-2.6707,-2.6676,-2.6678,-2.6624,-2.6617,-2.6601,-2.6521,-2.6506,-2.6468,-2.6525,-2.6317,-2.6313,-2.6308,-2.6286,-2.6278,-2.6271,0,0,0,0,0,-2.6902,-2.6842,-2.6845,-2.6829,-2.6744,-2.6678,-2.6667,-2.6652,-2.6673,-2.6642,-2.6615,-2.6619,-2.6483,-2.6514,-2.6496,-2.6456,-2.6319,-2.6314,-2.6309,-2.6289,-2.628,-2.6271,0,0,0,0,0,0,-2.6881,-2.6835,-2.6839,-2.6762,-2.6725,-2.6679,-2.664,-2.6642,-2.6595,-2.6599,-2.6579,-2.6567,-2.6493,-2.6467,-2.6503,-2.6375,-2.6403,-2.6394,-2.6394,-2.6385,-2.6378,-2.6384,-2.652,0,0,0,0,0,-2.6869,-2.6822,-2.6783,-2.6719,-2.6701,-2.6674,-2.6645,-2.6637,-2.6596,-2.6579,-2.6546,-2.6504,-2.6452,-2.6417,-2.6367,-2.6283,-2.627,-2.6247,-2.6239,-2.6234,-2.6225,-2.6178,-2.6167,-2.6288,-2.6288,-2.6288,0,0,-2.6841,-2.681,-2.6781,-2.6715,-2.6685,-2.6634,-2.666,-2.6606,-2.6567,-2.6569,-2.6498,-2.6473,-2.6424,-2.6346,-2.6309,-2.6322,-2.6189,-2.6227,-2.6223,-2.6217,-2.6171,-2.616,-2.615,-2.6285,-2.6285,-2.6286,0,0,-2.6764,-2.6737,-2.668,-2.6651,-2.6606,-2.6589,-2.6576,-2.653,-2.6515,-2.6444,-2.6445,-2.6398,-2.6308,-2.6273,-2.6244,-2.6156,-2.6157,-2.614,-2.61,-2.6055,-2.6045,-2.6037,-2.6004,-2.5992,-2.6132,-2.6132,-2.6132,0,-2.6733,-2.6661,-2.665,-2.6596,-2.6566,-2.657,-2.6512,-2.6482,-2.6422,-2.64,-2.6416,-2.6305,-2.6272,-2.6185,-2.6164,-2.614,-2.6122,-2.6145,-2.6048,-2.6039,-2.6031,-2.5999,-2.5987,-2.613,-2.613,-2.6131,-2.6131,0,-2.6625,-2.6574,-2.6534,-2.6479,-2.6445,-2.6389,-2.6368,-2.6334,-2.633,-2.6311,-2.6238,-2.6199,-2.6141,-2.612,-2.6114,-2.6032,-2.6041,-2.6053,-2.608,-2.6018,-2.5988,-2.5976,-2.6128,-2.6128,-2.6129,-2.6129,0,0,-2.653,-2.6473,-2.6458,-2.6433,-2.6385,-2.6344,-2.6288,-2.6235,-2.6205,-2.6164,-2.6114,-2.604,-2.6051,-2.6018,-2.6008,-2.5968,-2.59,-2.5985,-2.5984,-2.5969,-2.5805,-2.5795,-2.5781,-2.5902,-2.5899,-2.5897,-2.5809,0,-2.6447,-2.635,-2.634,-2.6252,-2.6204,-2.6208,-2.6159,-2.6123,-2.6103,-2.6058,-2.6035,-2.5982,-2.6002,-2.5982,-2.5944,-2.5917,-2.5866,-2.5923,-2.5852,-2.585,-2.5863,-2.5766,-2.5755,-2.5673,-2.5797,-2.5795,-2.5793,0,-2.6336,-2.6296,-2.6204,-2.6164,-2.6143,-2.6099,-2.6049,-2.6007,-2.5965,-2.5954,-2.5918,-2.5914,-2.5853,-2.5886,-2.5801,-2.584,-2.581,-2.5793,-2.5789,-2.578,-2.5816,-2.5752,-2.5646,-2.5633,-2.5775,-2.5777,-2.5778,0,-2.6274,-2.6196,-2.6132,-2.6111,-2.6062,-2.6031,-2.6009,-2.597,-2.5938,-2.5894,-2.5873,-2.5821,-2.5792,-2.5751,-2.5732,-2.5758,-2.5648,-2.5679,-2.5634,-2.5634,-2.5609,-2.561,-2.5495,-2.5593,-2.5594,-2.5594,-2.5594,0,-2.6181,-2.6125,-2.6103,-2.6063,-2.5999,-2.5988,-2.5924,-2.5903,-2.5869,-2.5822,-2.5822,-2.5778,-2.5757,-2.5709,-2.5694,-2.5625,-2.5612,-2.5599,-2.5595,-2.5598,-2.56,-2.5577,-2.5581,-2.5591,-2.5591,-2.5592,-2.5592,0,-2.61,-2.6084,-2.6014,-2.5975,-2.5964,-2.5918,-2.5883,-2.5843,-2.5826,-2.5767,-2.5753,-2.5724,-2.5668,-2.5646,-2.5576,-2.5566,-2.5486,-2.5488,-2.5501,-2.5499,-2.5455,-2.5459,-2.5319,-2.53,-2.5413,-2.5412,-2.5412,0,-2.6041,-2.5998,-2.5956,-2.5927,-2.5904,-2.5857,-2.5826,-2.5813,-2.578,-2.573,-2.5696,-2.5641,-2.5596,-2.5506,-2.5477,-2.5423,-2.5422,-2.5377,-2.5414,-2.5418,-2.5419,-2.5421,-2.5416,-2.5369,-2.5368,-2.5367,-2.5367,0,-2.5937,-2.5932,-2.5889,-2.5843,-2.5807,-2.5769,-2.5732,-2.5707,-2.5689,-2.5651,-2.5596,-2.5561,-2.5493,-2.5437,-2.5383,-2.5357,-2.5357,-2.5356,-2.5342,-2.5343,-2.5352,-2.5345,-2.548,-2.5358,-2.5359,-2.536,-2.536,-2.5361,-2.5864,-2.5826,-2.5791,-2.5742,-2.5714,-2.568,-2.5641,-2.562,-2.5575,-2.5519,-2.5514,-2.5454,-2.5413,-2.5341,-2.5313,-2.5264,-2.5276,-2.5256,-2.5251,-2.5246,-2.5242,-2.5363,-2.5254,-2.5255,-2.5255,-2.5255,-2.5255,0,-2.5758,-2.5737,-2.5693,-2.5643,-2.5605,-2.5614,-2.5573,-2.554,-2.5488,-2.5452,-2.5409,-2.5345,-2.5291,-2.526,-2.5205,-2.5172,-2.5171,-2.5158,-2.5159,-2.5153,-2.5236,-2.5252,-2.516,-2.516,-2.516,-2.516,-2.516,-2.516,-2.5699,-2.5635,-2.5626,-2.5547,-2.5525,-2.5469,-2.5445,-2.5413,-2.5384,-2.5314,-2.5271,-2.5252,-2.5216,-2.516,-2.5111,-2.5103,-2.5081,-2.5067,-2.506,-2.5137,-2.5147,-2.5156,-2.5171,-2.5064,-2.5063,-2.498,-2.4979,-2.4979]}]]